Location: Newark
(45.6000°N, 12.8833°E)
Time: 01:37:49
(UTC+00:00)

S-56A Canister/Altair - All Passes

Search period start: 16 November 2019 00:00
Search period end: 26 November 2019 00:00
Orbit: 634 x 2498 km, 38.9° (Epoch: 14 November)

Date Brightness Start Highest point End Pass type
(mag) Time Alt. Az. Time Alt. Az. Time Alt. Az.
16 Nov - 15:03:33 10° S 15:09:12 17° SSE 15:13:47 10° ESE daylight
16 Nov - 17:05:29 10° SW 17:13:03 35° SSE 17:18:26 10° E visible
16 Nov - 19:10:12 10° WSW 19:16:37 44° S 19:21:19 10° ESE visible
16 Nov - 21:15:14 10° WSW 21:19:37 26° SSW 21:23:23 10° SE night (unlit)
17 Nov - 14:30:46 10° S 14:36:21 16° SSE 14:40:59 10° ESE daylight
17 Nov - 16:32:14 10° SW 16:40:19 34° SSE 16:46:01 10° E visible
17 Nov - 18:37:00 10° WSW 18:44:01 46° S 18:49:00 10° ESE visible
17 Nov - 20:42:12 10° W 20:47:09 30° SSW 20:51:11 10° SE visible
18 Nov - 13:58:04 10° S 14:03:28 15° SE 14:08:03 10° ESE daylight
18 Nov - 15:58:57 10° SW 16:07:32 33° SSE 16:13:36 10° E visible
18 Nov - 18:03:43 10° WSW 18:11:23 47° S 18:16:41 10° ESE visible
18 Nov - 20:09:06 10° W 20:14:39 34° SSW 20:18:59 10° SE visible
18 Nov - 22:17:01 10° SW 22:17:07 10° SW 22:17:13 10° SW night (unlit)
19 Nov - 13:25:32 10° S 13:30:34 14° SE 13:34:56 10° ESE daylight
19 Nov - 15:25:39 10° SW 15:34:42 33° SSE 15:41:08 10° E daylight
19 Nov - 17:30:21 10° WSW 17:38:41 48° S 17:44:21 10° ESE visible
19 Nov - 19:35:55 10° W 19:42:08 38° SSW 19:46:45 10° SE visible
19 Nov - 21:42:23 10° WSW 21:44:40 13° SW 21:46:47 10° S night (unlit)
20 Nov - 12:53:14 10° SSE 12:57:37 13° SE 13:01:32 10° ESE daylight
20 Nov - 14:52:21 10° SSW 15:01:49 32° SSE 15:08:36 10° E daylight
20 Nov - 16:56:56 10° WSW 17:05:57 48° S 17:12:00 10° E visible
20 Nov - 19:02:38 10° W 19:09:34 42° SSW 19:14:31 10° SE visible
20 Nov - 21:08:51 10° WSW 21:12:13 16° SW 21:15:11 10° S visible
21 Nov - 12:21:21 10° SSE 12:24:38 11° SE 12:27:41 10° ESE daylight
21 Nov - 14:19:04 10° SSW 14:28:52 30° SSE 14:36:02 10° E daylight
21 Nov - 16:23:27 10° WSW 16:33:09 49° S 16:39:38 10° E visible
21 Nov - 18:29:17 10° W 18:36:58 46° SSW 18:42:16 10° ESE visible
21 Nov - 20:35:26 10° W 20:39:46 20° SSW 20:43:22 10° SSE visible
22 Nov - 13:45:49 10° SSW 13:55:52 29° SSE 14:03:23 10° E daylight
22 Nov - 15:49:56 10° WSW 16:00:17 48° S 16:07:14 10° E visible
22 Nov - 17:55:52 10° W 18:04:17 50° S 18:09:59 10° ESE visible
22 Nov - 20:02:03 10° W 20:07:18 24° SSW 20:11:26 10° SSE visible
23 Nov - 13:12:37 10° SSW 13:22:49 28° SSE 13:30:38 10° E daylight
23 Nov - 15:16:22 10° SW 15:27:21 48° SSE 15:34:46 10° E daylight
23 Nov - 17:22:22 10° W 17:31:34 53° S 17:37:40 10° ESE visible
23 Nov - 19:28:38 10° W 19:34:48 29° SSW 19:39:25 10° SSE visible
24 Nov - 12:39:30 10° SSW 12:49:44 26° SSE 12:57:49 10° E daylight
24 Nov - 14:42:49 10° SW 14:54:22 47° SSE 15:02:16 10° E daylight
24 Nov - 16:48:47 10° WSW 16:58:46 55° S 17:05:20 10° ESE visible
24 Nov - 18:55:11 10° W 19:02:15 34° SSW 19:07:19 10° SE visible
25 Nov - 12:06:29 10° SSW 12:16:38 25° SE 12:24:52 10° E daylight
25 Nov - 14:09:17 10° SW 14:21:18 46° SSE 14:29:44 10° E daylight
25 Nov - 16:15:09 10° WSW 16:25:54 57° S 16:32:58 10° ESE visible
25 Nov - 18:21:40 10° W 18:29:39 39° SSW 18:35:11 10° SE visible
25 Nov - 20:30:08 10° WSW 20:31:56 11° SW 20:33:36 10° SSW visible
